• In Uzbekistan
  • List of Countries
  • For 7 days
  • Water Temperature
  • Satellite Maps
  • Weather Map
  • Weather Widgets
  • user-avatar
    Login

    Hourly Weather Rawson

    Today, 26 April, Wednesday

    Time Temperature Precipitation Wind Pressure Humidity
    00:00 +8°C° 0 mm 6 mps 757 mmHg 60%
    01:00 +8°C° 0 mm 6 mps 757 mmHg 62%
    02:00 +8°C° 0 mm 6 mps 757 mmHg 63%
    03:00 +6°C° 0 mm 7 mps 756 mmHg 66%
    04:00 +6°C° 0 mm 7 mps 756 mmHg 69%
    05:00 +6°C° 0 mm 7 mps 756 mmHg 72%
    06:00 +6°C° 0 mm 7 mps 756 mmHg 71%
    07:00 +7°C° 0 mm 8 mps 756 mmHg 71%
    08:00 +7°C° 0 mm 8 mps 756 mmHg 71%
    09:00 +8°C° 0 mm 9 mps 756 mmHg 63%
    10:00 +11°C° 0 mm 9 mps 756 mmHg 55%
    11:00 +13°C° 0 mm 10 mps 756 mmHg 47%
    12:00 +13°C° 0 mm 10 mps 756 mmHg 44%
    13:00 +14°C° 0 mm 10 mps 756 mmHg 41%
    14:00 +16°C° 0 mm 10 mps 755 mmHg 38%
    15:00 +15°C° 0 mm 8 mps 755 mmHg 40%
    16:00 +15°C° 0 mm 7 mps 755 mmHg 42%
    17:00 +14°C° 0 mm 6 mps 755 mmHg 44%
    18:00 +13°C° 0 mm 6 mps 755 mmHg 47%
    19:00 +11°C° 0 mm 6 mps 755 mmHg 50%
    20:00 +10°C° 0 mm 5 mps 755 mmHg 53%
    21:00 +10°C° 0 mm 6 mps 755 mmHg 54%
    22:00 +10°C° 0 mm 7 mps 755 mmHg 55%
    23:00 +10°C° 0 mm 8 mps 755 mmHg 55%

    Tomorrow, 27 April, Thursday

    Time Temperature Precipitation Wind Pressure Humidity
    00:00 +9°C° 0 mm 8 mps 755 mmHg 57%
    01:00 +9°C° 0 mm 8 mps 754 mmHg 59%
    02:00 +9°C° 0 mm 8 mps 754 mmHg 61%
    03:00 +8°C° 0 mm 7 mps 753 mmHg 62%
    04:00 +8°C° 0 mm 7 mps 753 mmHg 62%
    05:00 +8°C° 0 mm 7 mps 752 mmHg 62%
    06:00 +8°C° 0 mm 7 mps 752 mmHg 62%
    07:00 +9°C° 0 mm 7 mps 752 mmHg 62%
    08:00 +9°C° 0 mm 7 mps 751 mmHg 62%
    09:00 +9°C° 0.5 mm 6 mps 751 mmHg 68%
    10:00 +10°C° 0.5 mm 6 mps 750 mmHg 75%
    11:00 +10°C° 0.5 mm 6 mps 750 mmHg 81%
    12:00 +13°C° 0.5 mm 5 mps 749 mmHg 76%
    13:00 +14°C° 0.5 mm 4 mps 748 mmHg 72%
    14:00 +15°C° 0.5 mm 4 mps 747 mmHg 67%
    15:00 +15°C° 0 mm 5 mps 748 mmHg 68%
    16:00 +14°C° 0 mm 7 mps 749 mmHg 69%
    17:00 +13°C° 0 mm 9 mps 749 mmHg 69%
    18:00 +12°C° 0 mm 8 mps 751 mmHg 73%
    19:00 +11°C° 0 mm 7 mps 752 mmHg 77%
    20:00 +10°C° 0 mm 7 mps 753 mmHg 80%
    21:00 +9°C° 0 mm 6 mps 754 mmHg 81%
    22:00 +9°C° 0 mm 5 mps 755 mmHg 81%
    23:00 +9°C° 0 mm 5 mps 756 mmHg 82%

    Day after tomorrow, 28 April, Friday

    Time Temperature Precipitation Wind Pressure Humidity
    00:00 +9°C° 0 mm 5 mps 756 mmHg 79%
    01:00 +9°C° 0 mm 6 mps 756 mmHg 76%
    02:00 +9°C° 0 mm 6 mps 756 mmHg 72%
    03:00 +9°C° 0 mm 7 mps 757 mmHg 72%
    04:00 +9°C° 0 mm 7 mps 757 mmHg 71%
    05:00 +9°C° 0 mm 8 mps 757 mmHg 70%
    06:00 +9°C° 0 mm 8 mps 757 mmHg 70%
    07:00 +9°C° 0 mm 8 mps 758 mmHg 70%
    08:00 +9°C° 0 mm 8 mps 758 mmHg 70%
    09:00 +11°C° 0 mm 8 mps 759 mmHg 62%
    10:00 +13°C° 0 mm 9 mps 759 mmHg 54%
    11:00 +16°C° 0 mm 9 mps 759 mmHg 47%
    12:00 +17°C° 0 mm 9 mps 759 mmHg 44%
    13:00 +17°C° 0 mm 8 mps 759 mmHg 42%
    14:00 +18°C° 0 mm 7 mps 759 mmHg 39%
    15:00 +17°C° 0 mm 6 mps 758 mmHg 41%
    16:00 +16°C° 0 mm 5 mps 758 mmHg 44%
    17:00 +17°C° 0 mm 4 mps 758 mmHg 46%
    18:00 +15°C° 0 mm 4 mps 758 mmHg 48%
    19:00 +14°C° 0 mm 3 mps 758 mmHg 50%
    20:00 +13°C° 0 mm 3 mps 758 mmHg 53%
    21:00 +13°C° 0 mm 4 mps 759 mmHg 53%
    22:00 +12°C° 0 mm 4 mps 759 mmHg 52%
    23:00 +12°C° 0 mm 5 mps 759 mmHg 52%

    29 April, Saturday

    Time Temperature Precipitation Wind Pressure Humidity
    00:00 +12°C° 0 mm 5 mps 758 mmHg 51%
    01:00 +12°C° 0 mm 4 mps 758 mmHg 50%
    02:00 +12°C° 0 mm 4 mps 758 mmHg 49%
    03:00 +12°C° 0 mm 4 mps 757 mmHg 53%
    04:00 +12°C° 0 mm 4 mps 757 mmHg 56%
    05:00 +12°C° 0 mm 4 mps 757 mmHg 59%
    06:00 +12°C° 0 mm 5 mps 757 mmHg 61%
    07:00 +12°C° 0 mm 5 mps 757 mmHg 63%
    08:00 +11°C° 0 mm 6 mps 757 mmHg 65%
    09:00 +14°C° 0 mm 6 mps 757 mmHg 56%
    10:00 +16°C° 0 mm 7 mps 757 mmHg 47%
    11:00 +20°C° 0 mm 7 mps 757 mmHg 38%
    12:00 +21°C° 0 mm 7 mps 756 mmHg 37%
    13:00 +22°C° 0 mm 8 mps 756 mmHg 35%
    14:00 +22°C° 0 mm 8 mps 756 mmHg 34%
    15:00 +22°C° 0 mm 7 mps 756 mmHg 38%
    16:00 +22°C° 0 mm 6 mps 755 mmHg 41%
    17:00 +21°C° 0 mm 6 mps 755 mmHg 45%
    18:00 +20°C° 0 mm 5 mps 756 mmHg 48%
    19:00 +20°C° 0 mm 5 mps 756 mmHg 51%
    20:00 +19°C° 0 mm 5 mps 756 mmHg 54%
    21:00 +19°C° 0 mm 5 mps 756 mmHg 57%
    22:00 +17°C° 0 mm 5 mps 757 mmHg 60%
    23:00 +17°C° 0 mm 5 mps 757 mmHg 63%

    30 April, Sunday

    Time Temperature Precipitation Wind Pressure Humidity
    00:00 +17°C° 0 mm 5 mps 757 mmHg 64%
    01:00 +16°C° 0 mm 5 mps 757 mmHg 66%
    02:00 +17°C° 0 mm 4 mps 757 mmHg 67%
    03:00 +17°C° 0 mm 4 mps 757 mmHg 67%
    04:00 +17°C° 0 mm 4 mps 757 mmHg 67%
    05:00 +16°C° 0 mm 3 mps 757 mmHg 67%
    06:00 +17°C° 0 mm 3 mps 757 mmHg 66%
    07:00 +17°C° 0 mm 3 mps 757 mmHg 64%
    08:00 +17°C° 0 mm 3 mps 757 mmHg 62%
    09:00 +19°C° 0 mm 4 mps 757 mmHg 56%
    10:00 +21°C° 0 mm 6 mps 756 mmHg 49%
    11:00 +23°C° 0 mm 7 mps 756 mmHg 43%
    12:00 +24°C° 0 mm 7 mps 756 mmHg 40%
    13:00 +27°C° 0 mm 7 mps 755 mmHg 36%
    14:00 +28°C° 0 mm 8 mps 754 mmHg 33%
    15:00 +27°C° 0 mm 7 mps 754 mmHg 35%
    16:00 +26°C° 0 mm 6 mps 754 mmHg 37%
    17:00 +25°C° 0 mm 5 mps 754 mmHg 39%
    18:00 +23°C° 0 mm 6 mps 754 mmHg 39%
    19:00 +22°C° 0 mm 6 mps 754 mmHg 40%
    20:00 +21°C° 0 mm 6 mps 754 mmHg 41%
    21:00 +20°C° 0 mm 6 mps 754 mmHg 42%
    22:00 +20°C° 0 mm 6 mps 754 mmHg 44%
    23:00 +19°C° 0 mm 6 mps 754 mmHg 46%

    1 May, Monday

    Time Temperature Precipitation Wind Pressure Humidity
    00:00 +19°C° 0 mm 6 mps 754 mmHg 48%
    01:00 +17°C° 0 mm 6 mps 754 mmHg 50%
    02:00 +17°C° 0 mm 5 mps 753 mmHg 52%
    03:00 +16°C° 0 mm 5 mps 753 mmHg 51%
    04:00 +16°C° 0 mm 5 mps 753 mmHg 51%
    05:00 +15°C° 0 mm 5 mps 753 mmHg 51%
    06:00 +15°C° 0 mm 4 mps 753 mmHg 48%
    07:00 +15°C° 0 mm 4 mps 753 mmHg 45%
    08:00 +15°C° 0 mm 4 mps 753 mmHg 42%
    09:00 +19°C° 0 mm 4 mps 753 mmHg 36%
    10:00 +21°C° 0 mm 5 mps 754 mmHg 30%
    11:00 +25°C° 0 mm 5 mps 754 mmHg 24%
    12:00 +26°C° 0 mm 6 mps 753 mmHg 23%
    13:00 +26°C° 0 mm 6 mps 753 mmHg 22%
    14:00 +27°C° 0 mm 7 mps 752 mmHg 21%
    15:00 +26°C° 0 mm 6 mps 753 mmHg 24%
    16:00 +25°C° 0 mm 5 mps 753 mmHg 26%
    17:00 +22°C° 0 mm 4 mps 753 mmHg 29%
    18:00 +21°C° 0 mm 4 mps 753 mmHg 32%
    19:00 +20°C° 0 mm 4 mps 754 mmHg 34%
    20:00 +19°C° 0 mm 4 mps 754 mmHg 37%
    21:00 +19°C° 0 mm 4 mps 754 mmHg 38%
    22:00 +19°C° 0 mm 4 mps 755 mmHg 40%
    23:00 +19°C° 0 mm 4 mps 755 mmHg 42%
    Show more